When you browse on this site, cookies collect data to enhance your experience and personalize the content and advertising you see.
Visit our Privacy Policy to learn more. By continuing to use the site, you agree to this use of cookies and data.
  • In Romania
  • List of Countries
  • For 7 days
  • Water Temperature
  • Weather Map
  • Weather Widgets
  • user-avatar
    Login

    Hourly Weather L'Aquila

    Today, 31 May, Sunday

    Time Temperature Precipitation Wind Pressure Humidity
    00:00 +9°C° 0 mm 1 mps 703 mmHg 94%
    01:00 +8°C° 0 mm 1 mps 703 mmHg 94%
    02:00 +8°C° 0 mm 1 mps 703 mmHg 93%
    03:00 +8°C° 0 mm 1 mps 703 mmHg 93%
    04:00 +8°C° 0 mm 1 mps 703 mmHg 92%
    05:00 +9°C° 0 mm 1 mps 703 mmHg 89%
    06:00 +11°C° 0 mm 1 mps 703 mmHg 86%
    07:00 +12°C° 0 mm 1 mps 703 mmHg 84%
    08:00 +14°C° 0 mm 1 mps 704 mmHg 77%
    09:00 +16°C° 0 mm 1 mps 704 mmHg 70%
    10:00 +18°C° 0 mm 1 mps 705 mmHg 64%
    11:00 +18°C° 0.2 mm 1 mps 705 mmHg 64%
    12:00 +19°C° 0.2 mm 1 mps 704 mmHg 65%
    13:00 +18°C° 0.2 mm 2 mps 704 mmHg 65%
    14:00 +17°C° 1 mm 2 mps 704 mmHg 69%
    15:00 +17°C° 1 mm 2 mps 704 mmHg 74%
    16:00 +17°C° 1 mm 2 mps 704 mmHg 78%
    17:00 +16°C° 0.9 mm 1 mps 704 mmHg 82%
    18:00 +15°C° 0.9 mm 1 mps 703 mmHg 86%
    19:00 +14°C° 0.9 mm 1 mps 703 mmHg 90%
    20:00 +13°C° 0.1 mm 1 mps 703 mmHg 90%
    21:00 +11°C° 0.1 mm 0 mps 703 mmHg 90%
    22:00 +10°C° 0.1 mm 0 mps 704 mmHg 90%
    23:00 +11°C° 0 mm 1 mps 704 mmHg 90%

    Tomorrow, 1 June, Monday

    Time Temperature Precipitation Wind Pressure Humidity
    00:00 +11°C° 0 mm 1 mps 703 mmHg 90%
    01:00 +10°C° 0 mm 1 mps 703 mmHg 91%
    02:00 +10°C° 0 mm 1 mps 703 mmHg 90%
    03:00 +10°C° 0 mm 1 mps 703 mmHg 89%
    04:00 +9°C° 0 mm 1 mps 703 mmHg 88%
    05:00 +11°C° 0 mm 1 mps 704 mmHg 84%
    06:00 +12°C° 0 mm 1 mps 704 mmHg 80%
    07:00 +14°C° 0 mm 1 mps 704 mmHg 76%
    08:00 +15°C° 0 mm 2 mps 705 mmHg 70%
    09:00 +16°C° 0 mm 2 mps 705 mmHg 65%
    10:00 +18°C° 0 mm 2 mps 706 mmHg 59%
    11:00 +18°C° 0.1 mm 2 mps 705 mmHg 60%
    12:00 +18°C° 0.1 mm 2 mps 705 mmHg 61%
    13:00 +19°C° 0.1 mm 2 mps 705 mmHg 62%
    14:00 +19°C° 0.2 mm 2 mps 705 mmHg 64%
    15:00 +18°C° 0.2 mm 2 mps 705 mmHg 66%
    16:00 +18°C° 0.2 mm 2 mps 705 mmHg 69%
    17:00 +17°C° 0.1 mm 2 mps 705 mmHg 74%
    18:00 +16°C° 0.1 mm 2 mps 704 mmHg 79%
    19:00 +15°C° 0.1 mm 1 mps 704 mmHg 84%
    20:00 +13°C° 0 mm 1 mps 704 mmHg 85%
    21:00 +12°C° 0 mm 1 mps 704 mmHg 87%
    22:00 +11°C° 0 mm 1 mps 704 mmHg 88%
    23:00 +11°C° 0 mm 1 mps 704 mmHg 87%

    Day after tomorrow, 2 June, Tuesday

    Time Temperature Precipitation Wind Pressure Humidity
    00:00 +10°C° 0 mm 1 mps 704 mmHg 86%
    01:00 +10°C° 0 mm 1 mps 704 mmHg 85%
    02:00 +10°C° 0 mm 1 mps 703 mmHg 84%
    03:00 +10°C° 0 mm 1 mps 703 mmHg 83%
    04:00 +10°C° 0 mm 1 mps 703 mmHg 83%
    05:00 +12°C° 0 mm 1 mps 704 mmHg 80%
    06:00 +13°C° 0 mm 1 mps 704 mmHg 76%
    07:00 +15°C° 0 mm 1 mps 704 mmHg 73%
    08:00 +18°C° 0 mm 1 mps 704 mmHg 66%
    09:00 +19°C° 0 mm 1 mps 705 mmHg 60%
    10:00 +21°C° 0 mm 1 mps 705 mmHg 54%
    11:00 +22°C° 0 mm 1 mps 705 mmHg 53%
    12:00 +22°C° 0 mm 1 mps 705 mmHg 52%
    13:00 +23°C° 0 mm 1 mps 705 mmHg 50%
    14:00 +23°C° 0.1 mm 1 mps 704 mmHg 54%
    15:00 +22°C° 0.1 mm 1 mps 704 mmHg 58%
    16:00 +22°C° 0.1 mm 1 mps 703 mmHg 62%
    17:00 +20°C° 0.4 mm 1 mps 703 mmHg 69%
    18:00 +19°C° 0.4 mm 1 mps 702 mmHg 76%
    19:00 +16°C° 0.4 mm 0 mps 702 mmHg 83%
    20:00 +16°C° 0 mm 1 mps 702 mmHg 85%
    21:00 +15°C° 0 mm 1 mps 702 mmHg 87%
    22:00 +14°C° 0 mm 1 mps 702 mmHg 89%
    23:00 +13°C° 0.1 mm 1 mps 701 mmHg 89%

    3 June, Wednesday

    Time Temperature Precipitation Wind Pressure Humidity
    00:00 +13°C° 0.1 mm 1 mps 701 mmHg 89%
    01:00 +13°C° 0.1 mm 1 mps 701 mmHg 89%
    02:00 +13°C° 0.1 mm 1 mps 700 mmHg 89%
    03:00 +13°C° 0.1 mm 1 mps 700 mmHg 89%
    04:00 +13°C° 0.1 mm 1 mps 700 mmHg 89%
    05:00 +14°C° 0.2 mm 1 mps 700 mmHg 87%
    06:00 +15°C° 0.2 mm 1 mps 700 mmHg 85%
    07:00 +16°C° 0.2 mm 1 mps 701 mmHg 83%
    08:00 +18°C° 0.5 mm 1 mps 701 mmHg 78%
    09:00 +19°C° 0.5 mm 1 mps 702 mmHg 73%
    10:00 +20°C° 0.5 mm 1 mps 702 mmHg 67%
    11:00 +21°C° 1.1 mm 1 mps 702 mmHg 68%
    12:00 +21°C° 1.1 mm 1 mps 702 mmHg 68%
    13:00 +21°C° 1.1 mm 1 mps 702 mmHg 69%
    14:00 +21°C° 0.8 mm 1 mps 702 mmHg 69%
    15:00 +21°C° 0.8 mm 1 mps 701 mmHg 70%
    16:00 +20°C° 0.8 mm 2 mps 701 mmHg 71%
    17:00 +20°C° 0.3 mm 1 mps 701 mmHg 76%
    18:00 +19°C° 0.3 mm 1 mps 701 mmHg 81%
    19:00 +16°C° 0.3 mm 1 mps 701 mmHg 86%
    20:00 +15°C° 0 mm 1 mps 701 mmHg 87%
    21:00 +14°C° 0 mm 1 mps 701 mmHg 88%
    22:00 +13°C° 0 mm 1 mps 701 mmHg 90%
    23:00 +13°C° 0 mm 1 mps 701 mmHg 89%

    4 June, Thursday

    Time Temperature Precipitation Wind Pressure Humidity
    00:00 +13°C° 0 mm 1 mps 701 mmHg 89%
    01:00 +12°C° 0 mm 1 mps 701 mmHg 88%
    02:00 +12°C° 0 mm 1 mps 701 mmHg 87%
    03:00 +12°C° 0 mm 1 mps 701 mmHg 87%
    04:00 +12°C° 0 mm 1 mps 701 mmHg 86%
    05:00 +13°C° 0 mm 1 mps 702 mmHg 83%
    06:00 +15°C° 0 mm 1 mps 702 mmHg 80%
    07:00 +18°C° 0 mm 1 mps 703 mmHg 77%
    08:00 +19°C° 0 mm 1 mps 703 mmHg 71%
    09:00 +21°C° 0 mm 1 mps 704 mmHg 66%
    10:00 +23°C° 0 mm 1 mps 704 mmHg 60%
    11:00 +23°C° 0 mm 1 mps 704 mmHg 59%
    12:00 +24°C° 0 mm 2 mps 704 mmHg 58%
    13:00 +24°C° 0 mm 2 mps 704 mmHg 58%
    14:00 +24°C° 0.3 mm 2 mps 704 mmHg 59%
    15:00 +24°C° 0.3 mm 2 mps 704 mmHg 61%
    16:00 +24°C° 0.3 mm 2 mps 704 mmHg 63%
    17:00 +21°C° 0.1 mm 2 mps 703 mmHg 68%
    18:00 +21°C° 0.1 mm 1 mps 703 mmHg 74%
    19:00 +20°C° 0.1 mm 1 mps 703 mmHg 80%
    20:00 +19°C° 0 mm 1 mps 703 mmHg 81%
    21:00 +16°C° 0 mm 1 mps 703 mmHg 82%
    22:00 +15°C° 0 mm 1 mps 703 mmHg 83%
    23:00 +15°C° 0 mm 1 mps 703 mmHg 82%

    5 June, Friday

    Time Temperature Precipitation Wind Pressure Humidity
    00:00 +15°C° 0 mm 2 mps 703 mmHg 80%
    01:00 +15°C° 0 mm 2 mps 702 mmHg 79%
    02:00 +15°C° 0 mm 2 mps 702 mmHg 76%
    03:00 +15°C° 0 mm 2 mps 702 mmHg 74%
    04:00 +15°C° 0 mm 2 mps 702 mmHg 71%
    05:00 +16°C° 0 mm 2 mps 702 mmHg 70%
    06:00 +19°C° 0 mm 1 mps 703 mmHg 69%
    07:00 +21°C° 0 mm 1 mps 703 mmHg 67%
    08:00 +21°C° 0 mm 2 mps 703 mmHg 62%
    09:00 +24°C° 0 mm 2 mps 704 mmHg 58%
    10:00 +26°C° 0 mm 2 mps 704 mmHg 53%
    11:00 +26°C° 0 mm 2 mps 704 mmHg 52%
    12:00 +27°C° 0 mm 2 mps 704 mmHg 52%
    13:00 +27°C° 0 mm 3 mps 704 mmHg 52%
    14:00 +26°C° 0 mm 2 mps 704 mmHg 56%
    15:00 +26°C° 0 mm 2 mps 703 mmHg 61%
    16:00 +25°C° 0 mm 2 mps 703 mmHg 65%
    17:00 +24°C° 0 mm 2 mps 703 mmHg 70%
    18:00 +23°C° 0 mm 1 mps 702 mmHg 75%
    19:00 +21°C° 0 mm 1 mps 702 mmHg 79%
    20:00 +20°C° 0 mm 1 mps 702 mmHg 79%
    21:00 +19°C° 0 mm 1 mps 702 mmHg 79%
    22:00 +19°C° 0 mm 1 mps 703 mmHg 79%
    23:00 +18°C° 0 mm 1 mps 703 mmHg 79%
    Show more